Augusta, ME

9:17 PM EST on January 18, 2018 (GMT -0500)
Augusta State

Weather History for KAUG - October, 2012

Change the Weather History Date:

Wednesday, October 10, 2012

  Actual Average Record
Temperature  
Mean Temperature 46 °F 50 °F  
Max Temperature 55 °F 60 °F 78 °F (1997)
Min Temperature 36 °F 41 °F 28 °F (1963)
Degree Days  
Heating Degree Days 20 15  
Month to date heating degree days 130  
Since 1 July heating degree days 350  
Cooling Degree Days 0 0  
Month to date cooling degree days 0  
Year to date cooling degree days 387  
Moisture  
Dew Point 48 °F    
Average Humidity 95    
Maximum Humidity 100    
Minimum Humidity 83    
Precipitation  
Precipitation 0.32 in 0.14 in 3.56 in (1998)
Month to date precipitation 1.36  
Year to date precipitation 31.28  
Sea Level Pressure  
Sea Level Pressure 29.86 in    
Wind  
Wind Speed 5 mph (ENE)    
Max Wind Speed 14 mph    
Max Gust Speed 20 mph    
Visibility 6 miles    
Events Rain , Thunderstorm    
T = Trace of Precipitation, MM = Missing Value Source: NWS Daily Summary

Daily Weather History Graph

Daily Weather History Graph

Search for Another Location

Airport or City:

Trip Planner

Search our weather history database for the weather conditions in past years. The results will help you decide how hot, cold, wet, or windy it might be!

Date:

Astronomy

Oct. 10, 2012 Rise Set
Actual Time 6:48 AM EDT 6:02 PM EDT
Civil Twilight 6:19 AM EDT 6:31 PM EDT
Nautical Twilight 5:45 AM EDT 7:05 PM EDT
Astronomical Twilight 5:12 AM EDT 7:39 PM EDT
Moon 1:10 AM EDT (10/10) 3:13 PM EDT (10/10)
Length of Visible Light 12h 12m
Length of Day
11h 14m
Waning Crescent, 27% of the Moon is Illuminated
Oct 10
Waning Crescent
Oct 15
New
Oct 21
First Quarter
Oct 29
Full
Nov 6
Last Quarter

Hourly Weather History & Observations

Time (EDT) Temp. Windchill Dew Point Humidity Pressure Visibility Wind Dir Wind Speed Gust Speed Precip Events Conditions
12:53 AM 39.0 °F 36.8 °F 37.9 °F 96% 30.19 in 10.0 mi NNW 3.5 mph - N/A   Clear
1:53 AM 39.0 °F 36.8 °F 37.9 °F 96% 30.18 in 10.0 mi North 3.5 mph - N/A   Scattered Clouds
2:53 AM 39.0 °F 35.7 °F 37.0 °F 93% 30.16 in 10.0 mi North 4.6 mph - N/A   Clear
3:53 AM 39.0 °F 35.7 °F 37.0 °F 93% 30.14 in 10.0 mi NNE 4.6 mph - N/A   Partly Cloudy
4:53 AM 37.9 °F - 36.0 °F 93% 30.13 in 10.0 mi Calm Calm - N/A   Clear
5:53 AM 36.0 °F 32.1 °F 36.0 °F 100% 30.12 in 9.0 mi NW 4.6 mph - N/A   Mostly Cloudy
6:53 AM 37.9 °F 32.7 °F 37.0 °F 97% 30.12 in 10.0 mi NNW 6.9 mph - N/A   Overcast
7:53 AM 39.9 °F 37.8 °F 39.0 °F 97% 30.12 in 10.0 mi NNW 3.5 mph - N/A   Overcast
8:53 AM 41.0 °F 37.1 °F 39.0 °F 93% 30.09 in 10.0 mi NW 5.8 mph - N/A   Overcast
9:04 AM 42.8 °F 40.1 °F 39.2 °F 87% 30.08 in 10.0 mi NNW 4.6 mph - N/A   Overcast
9:53 AM 44.1 °F 42.5 °F 41.0 °F 89% 30.08 in 10.0 mi NW 3.5 mph - N/A   Overcast
10:53 AM 46.0 °F - 42.1 °F 86% 30.05 in 10.0 mi Calm Calm - N/A   Overcast
11:53 AM 48.0 °F - 43.0 °F 83% 30.03 in 10.0 mi Calm Calm - N/A   Overcast
12:13 PM 48.2 °F - 44.6 °F 87% 30.01 in 10.0 mi Calm Calm - N/A   Overcast
12:53 PM 48.9 °F - 45.0 °F 86% 29.99 in 10.0 mi Calm Calm - N/A   Overcast
1:34 PM 48.2 °F - 46.4 °F 93% 29.95 in 7.0 mi Calm Calm - N/A   Overcast
1:53 PM 50.0 °F - 46.0 °F 86% 29.95 in 10.0 mi NE 3.5 mph - N/A   Overcast
2:17 PM 50.0 °F - 46.4 °F 87% 29.92 in 10.0 mi NE 4.6 mph - N/A   Overcast
2:53 PM 50.0 °F - 46.0 °F 86% 29.91 in 10.0 mi NE 4.6 mph - 0.00 in   Overcast
3:34 PM 50.0 °F - 48.2 °F 94% 29.86 in 2.5 mi NE 5.8 mph - 0.04 in Rain Heavy Rain
3:48 PM 50.0 °F - 48.2 °F 94% 29.85 in 4.0 mi NE 4.6 mph - 0.06 in Rain Light Rain
3:53 PM 50.0 °F - 48.9 °F 96% 29.86 in 5.0 mi NE 4.6 mph - 0.06 in Rain Light Rain
4:15 PM 50.0 °F - 50.0 °F 100% 29.83 in 1.8 mi East 4.6 mph - 0.00 in Rain Light Rain
4:32 PM 51.8 °F - 50.0 °F 94% 29.81 in 3.0 mi East 3.5 mph - 0.01 in Rain Light Rain
4:43 PM 51.8 °F - 51.8 °F 100% 29.81 in 2.0 mi East 3.5 mph - 0.01 in   Overcast
4:51 PM 51.8 °F - 51.8 °F 100% 29.80 in 1.2 mi ESE 5.8 mph - 0.01 in   Overcast
4:53 PM 52.0 °F - 52.0 °F 100% 29.81 in 1.2 mi ESE 5.8 mph - 0.01 in   Overcast
5:39 PM 53.6 °F - 53.6 °F 100% 29.77 in 2.0 mi SSE 10.4 mph 19.6 mph 0.00 in Rain Light Rain
5:53 PM 55.0 °F - 54.0 °F 96% 29.77 in 3.0 mi SSE 11.5 mph 17.3 mph 0.01 in Rain Light Rain
6:53 PM 55.0 °F - 54.0 °F 96% 29.73 in 4.0 mi SSE 10.4 mph 19.6 mph 0.02 in Rain , Thunderstorm Light Thunderstorms and Rain
7:09 PM 55.4 °F - 53.6 °F 94% 29.71 in 5.0 mi SE 10.4 mph - 0.01 in Rain Light Rain
7:53 PM 55.0 °F - 55.0 °F 100% 29.69 in 6.0 mi SE 10.4 mph - 0.10 in Rain Light Rain
8:23 PM 55.4 °F - 55.4 °F 100% 29.68 in 2.5 mi South 5.8 mph - 0.03 in Rain Light Rain
8:35 PM 55.4 °F - 55.4 °F 100% 29.67 in 3.0 mi South 6.9 mph - N/A Rain Light Rain
8:44 PM 55.4 °F - 55.4 °F 100% 29.66 in 3.0 mi SSE 6.9 mph - 0.06 in Rain Light Rain
8:53 PM 55.9 °F - 55.0 °F 97% 29.66 in 3.0 mi SSE 6.9 mph - 0.07 in Rain Light Rain
9:00 PM 55.4 °F - 55.4 °F 100% 29.65 in 2.5 mi SSE 9.2 mph - 0.00 in Rain Light Rain
9:10 PM 55.4 °F - 55.4 °F 100% 29.65 in 1.0 mi SSE 8.1 mph - 0.02 in Rain Rain
9:39 PM 55.4 °F - 55.4 °F 100% 29.63 in 0.8 mi Calm Calm - 0.03 in Rain Light Rain
9:48 PM 55.4 °F - 55.4 °F 100% 29.63 in 1.2 mi Calm Calm - 0.04 in Rain Light Rain
9:53 PM 55.9 °F - 55.0 °F 97% 29.63 in 1.8 mi South 3.5 mph - 0.04 in Rain Light Rain
10:14 PM 55.4 °F - 55.4 °F 100% 29.63 in 3.0 mi West 5.8 mph - 0.01 in Rain Light Rain
10:34 PM 55.4 °F - 53.6 °F 94% 29.63 in 10.0 mi WNW 8.1 mph - 0.01 in Rain Light Rain
10:53 PM 54.0 °F - 52.0 °F 93% 29.64 in 10.0 mi WNW 9.2 mph - 0.01 in   Overcast
11:00 PM 53.6 °F - 51.8 °F 94% 29.63 in 10.0 mi West 6.9 mph - 0.00 in Rain Light Rain
11:19 PM 53.6 °F - 51.8 °F 94% 29.63 in 10.0 mi West 5.8 mph - 0.00 in   Overcast
11:53 PM 53.1 °F - 48.9 °F 86% 29.67 in 10.0 mi WNW 13.8 mph 19.6 mph 0.00 in   Overcast